DW5450 Weather Reports


time (UTC)temp
C
wind
direction
speed
KPH
gust
KPH
rain 1hr
cm
rain 24hr
cm
rain mn
cm
humidity
%
barometer
mb
20260506024545 23 164 0.0 3.2 0.00 0.00 0.00 81 1011.3
20260506023035 24 163 0.0 1.6 0.00 0.00 0.00 81 1011.2
20260506021535 24 163 0.0 3.2 0.00 0.00 0.00 80 1011.0
20260506020034 24 163 0.0 4.8 0.00 0.00 0.00 79 1010.9
20260506014537 25 148 0.0 4.8 0.00 0.00 0.00 79 1010.8
20260506013035 25 125 0.0 6.4 0.00 0.00 0.00 78 1010.7
20260506011533 25 161 0.0 6.4 0.00 0.00 0.00 78 1010.8
20260506010034 25 180 3.2 8.0 0.00 0.00 0.00 78 1010.7
20260506004532 25 194 3.2 11.3 0.00 0.00 0.00 77 1010.6
20260506003036 26 123 3.2 12.9 0.00 0.00 0.00 77 1010.5
20260506001537 26 146 4.8 11.3 0.00 0.00 0.00 77 1010.5
20260506000030 26 129 6.4 22.5 0.00 0.00 0.00 76 1010.5
20260505234535 26 159 3.2 14.5 0.00 0.00 0.00 75 1010.5
20260505233029 27 113 6.4 16.1 0.00 0.00 0.00 74 1010.2
20260505231529 27 203 8.0 17.7 0.00 0.00 0.00 73 1010.2
20260505230045 27 132 4.8 14.5 0.00 0.00 0.00 73 1010.3
20260505224526 27 107 4.8 17.7 0.00 0.00 0.00 72 1010.4
20260505223025 27 179 6.4 16.1 0.00 0.00 0.00 69 1010.4
20260505221524 28 137 4.8 12.9 0.00 0.00 0.00 68 1010.6
20260505220030 28 126 1.6 14.5 0.00 0.00 0.00 68 1010.6
20260505214521 28 196 4.8 14.5 0.00 0.00 0.00 67 1010.9
20260505213022 27 118 6.4 16.1 0.00 0.00 0.00 69 1011.2
20260505211519 27 101 6.4 20.9 0.00 0.00 0.00 68 1011.3
20260505210018 27 169 3.2 19.3 0.00 0.00 0.00 69 1011.5
20260505204518 27 146 6.4 19.3 0.00 0.00 0.00 68 1011.6
20260505203020 28 131 4.8 19.3 0.00 0.00 0.00 69 1011.7
20260505201516 27 180 8.0 19.3 0.00 0.00 0.00 67 1011.8
20260505200016 28 167 6.4 14.5 0.00 0.00 0.00 67 1011.9
20260505194515 28 153 6.4 12.9 0.00 0.00 0.00 66 1012.0
20260505193014 28 96 3.2 16.1 0.00 0.00 0.00 68 1012.0
20260505191514 27 152 4.8 19.3 0.00 0.00 0.00 69 1012.1
20260505190016 28 122 6.4 16.1 0.00 0.00 0.00 68 1012.2
20260505184511 27 115 6.4 14.5 0.00 0.00 0.00 69 1012.4
20260505183011 27 167 6.4 14.5 0.00 0.00 0.00 70 1012.6
20260505181509 27 132 4.8 16.1 0.00 0.00 0.00 72 1012.9
20260505180021 27 158 6.4 16.1 0.00 0.00 0.00 72 1013.0
20260505174508 27 111 6.4 16.1 0.00 0.00 0.00 73 1013.1
20260505173008 27 129 6.4 17.7 0.00 0.00 0.00 73 1013.1
20260505171507 27 128 6.4 17.7 0.00 0.00 0.00 71 1013.0
20260505170006 27 180 6.4 19.3 0.00 0.00 0.00 71 1013.0
20260505164505 27 164 6.4 14.5 0.00 0.00 0.00 69 1013.0
20260505163003 27 139 4.8 12.9 0.00 0.00 0.00 69 1013.3
20260505161502 27 158 6.4 11.3 0.00 0.00 0.00 68 1012.9
20260505153052 25 348 0.0 3.2 0.00 0.00 0.00 74 1012.9
20260505151548 24 348 0.0 4.8 0.00 0.00 0.00 72 1012.9
20260505124526 17 299 0.0 4.8 0.00 0.00 0.00 86 1012.1
20260505123031 17 299 1.6 6.4 0.00 0.00 0.00 86 1011.9
20260505121522 17 299 0.0 4.8 0.00 0.00 0.00 87 1011.7
20260505120024 17 299 0.0 3.2 0.00 0.00 0.00 87 1011.6
20260505114521 17 299 0.0 6.4 0.00 0.00 0.00 87 1011.4
20260505113022 17 299 0.0 6.4 0.00 0.00 0.00 87 1011.5
20260505111522 18 299 0.0 6.4 0.00 0.00 0.00 87 1011.6
20260505101530 17 272 0.0 3.2 0.00 0.00 0.00 88 1011.2
20260505100038 17 272 0.0 1.6 0.00 0.00 0.00 88 1011.2
20260505094516 18 272 0.0 4.8 0.00 0.00 0.00 88 1011.0
20260505093021 17 165 0.0 3.2 0.00 0.00 0.00 88 1011.2
20260505091518 17 165 0.0 3.2 0.00 0.00 0.00 88 1011.2
20260505090013 17 165 0.0 1.6 0.00 0.00 0.00 87 1011.3
20260505084511 18 165 0.0 0.0 0.00 0.00 0.00 87 1011.4
20260505083009 18 165 0.0 3.2 0.00 0.00 0.00 87 1011.3
20260505081510 18 165 0.0 0.0 0.00 0.00 0.00 87 1011.5
20260505080005 18 165 0.0 0.0 0.00 0.00 0.00 87 1011.7
20260505074503 18 165 0.0 1.6 0.00 0.00 0.00 87 1011.6
20260505073007 18 165 0.0 1.6 0.00 0.00 0.00 87 1011.6
20260505071600 19 165 0.0 0.0 0.00 0.00 0.00 86 1011.5
20260505070100 19 165 0.0 1.6 0.00 0.00 0.00 86 1011.4
20260505064557 20 165 0.0 0.0 0.00 0.00 0.00 86 1011.5
20260505063112 20 165 0.0 0.0 0.00 0.00 0.00 86 1011.4
20260505061555 20 165 0.0 0.0 0.00 0.00 0.00 86 1011.5
20260505060055 20 165 0.0 0.0 0.00 0.00 0.00 85 1011.6
20260505054554 20 165 0.0 0.0 0.00 0.00 0.00 85 1011.6
20260505053054 21 165 0.0 0.0 0.00 0.00 0.00 85 1011.7
20260505051554 21 165 0.0 0.0 0.00 0.00 0.00 85 1011.8
20260505041551 22 165 0.0 0.0 0.00 0.00 0.00 83 1011.5
20260505040051 22 165 0.0 0.0 0.00 0.00 0.00 83 1011.6
20260505034552 22 165 0.0 1.6 0.00 0.00 0.00 82 1011.5
20260505033052 22 165 0.0 0.0 0.00 0.00 0.00 82 1011.4
20260505031552 23 165 0.0 0.0 0.00 0.00 0.00 81 1011.3
20260505030049 23 165 0.0 0.0 0.00 0.00 0.00 81 1011.2